Location: McFarlands Corners
(41.4117°N, 81.3382°W)
Time: 02:45:27
(UTC+00:00)

Tiros 1 - Pass Details

Date: 20 February 2026
Orbit: 618 x 649 km, 48.4° (Epoch: 13 March)

Event Time Altitude Azimuth Distance (km) Brightness Sun altitude
Rises 13:53:02 0° 252° (WSW) 2,914 10.1 16.4°
Reaches altitude 10° 13:55:23 10° 256° (WSW) 2,002 9.3 16.8°
Maximum altitude 13:59:57 60° 337° (NNW) 715 7.4 17.5°
Drops below altitude 10° 14:04:28 10° 58° (ENE) 1,991 10.1 18.2°
Sets 14:06:49 0° 62° (ENE) 2,895 10.9 18.6°
